User: anonymous   Login
Location: Unspecified
(0.0000°N, 0.0000°E)
Time: 17:05:45
(UTC+00:00)
Language:

N. Korean satellite - Orbit

View from above orbital plane
View from above orbital plane
View from above satellite
View from above satellite

Ground track
Ground track

The orbit data is extracted from the following two-line orbital elements,

1 39026U 12072A   16042.23855013  .00005229  00000-0  22153-3 0  9996
2 39026  97.2602  70.7010 0045315 114.3171 246.2808 15.22623141175054
Epoch (UTC): 11 February 2016 05:43:30
Eccentricity: 0.0045315
inclination: 97.2602°
perigee height: 467 km
apogee height: 529 km
right ascension of ascending node: 70.7010°
argument of perigee: 114.3171°
revolutions per day: 15.22623141
mean anomaly at epoch: 246.2808°
orbit number at epoch: 17505

The dashed part of the orbit path shows where the satellite is in the earth's shadow,  

DLR